This is the latest recevied weather packets stored in our database for station/object KB1ZFK. If no packets are shown the sender has not sent any weather packets the latest 10 day(s).
| Time | Temp. | Humidity | Pressure | Rain* | Wind** | Luminosity | Snow |
|---|---|---|---|---|---|---|---|
| 1777834889 | 10.56° C | 50% | 1005.9 hPa | 0 mm | - | 253 W/m² | - |
| 1777834585 | 10.56° C | 50% | 1005.8 hPa | 0 mm | - | 243 W/m² | - |
| 1777834281 | 10° C | 48% | 1006 hPa | 0 mm | - | 252 W/m² | - |
| 1777833976 | 10° C | 48% | 1005.9 hPa | 0 mm | - | 245 W/m² | - |
| 1777833673 | 10° C | 53% | 1005.9 hPa | 0 mm | - | 229 W/m² | - |
| 1777833369 | 10° C | 52% | 1005.9 hPa | 0 mm | - | 208 W/m² | - |
| 1777833067 | 10° C | 52% | 1006 hPa | 0 mm | - | 247 W/m² | - |
| 1777832765 | 9.44° C | 55% | 1005.8 hPa | 0 mm | - | 262 W/m² | - |
| 1777832463 | 8.89° C | 57% | 1006.2 hPa | 0 mm | - | 164 W/m² | - |
| 1777832159 | 9.44° C | 59% | 1005.8 hPa | 0 mm | - | 88 W/m² | - |
| 1777831856 | 9.44° C | 54% | 1006.1 hPa | 0 mm | - | 104 W/m² | - |
| 1777831553 | 10° C | 54% | 1005.9 hPa | 0 mm | - | 159 W/m² | - |
| 1777831250 | 10° C | 52% | 1005.8 hPa | 0 mm | - | 280 W/m² | - |
| 1777830947 | 10° C | 59% | 1005.9 hPa | 0 mm | - | 336 W/m² | - |
| 1777830645 | 10° C | 57% | 1006 hPa | 0 mm | - | 337 W/m² | - |
| 1777830342 | 10.56° C | 52% | 1005.9 hPa | 0 mm | - | 317 W/m² | - |
| 1777830038 | 10° C | 53% | 1005.9 hPa | 0 mm | - | 402 W/m² | - |
| 1777829733 | 10° C | 52% | 1005.9 hPa | 0 mm | - | 395 W/m² | - |
| 1777829430 | 9.44° C | 57% | 1006.1 hPa | 0 mm | - | 392 W/m² | - |
| 1777829128 | 9.44° C | 54% | 1006.1 hPa | 0 mm | - | 338 W/m² | - |
| 1777828824 | 9.44° C | 55% | 1006 hPa | 0 mm | - | 335 W/m² | - |
| 1777828521 | 9.44° C | 56% | 1006.1 hPa | 0 mm | - | 312 W/m² | - |
| 1777828218 | 9.44° C | 61% | 1006 hPa | 0 mm | - | 350 W/m² | - |
| 1777827914 | 9.44° C | 57% | 1006.1 hPa | 0 mm | - | 367 W/m² | - |
| 1777827612 | 8.89° C | 59% | 1006.1 hPa | 0 mm | - | 407 W/m² | - |
* Rain latest hour (hover to see other rain measurements)
** Current wind speed in m/s (hover to see current wind gust speed)